User: anonymous   Login
Location: *
(17.3280°S, 114.7300°W)
Time: 15:47:02
(UTC+00:00)
Language:

Hubble Space Telescope - Orbit

View from above orbital plane
View from above orbital plane
View from above satellite
View from above satellite

Ground track
Ground track

The orbit data is extracted from the following two-line orbital elements,

1 20580U 90037B   20334.67129652 +.00000973 +00000-0 +48170-4 0  9997
2 20580 028.4707 306.8352 0002912 073.5481 089.6127 15.09492573480914
Epoch (UTC): 29 November 2020 16:06:40
Eccentricity: 0.0002912
inclination: 28.4707°
perigee height: 536 km
apogee height: 540 km
right ascension of ascending node: 306.8352°
argument of perigee: 73.5481°
revolutions per day: 15.09492573
mean anomaly at epoch: 89.6127°
orbit number at epoch: 48091

The dashed part of the orbit path shows where the satellite is in the earth's shadow,  

DLR